Showing default

OPS 9323 (IDSCS 10), 2650

Orbit data source: Space-Track

OPS 9323 (IDSCS 10), 2650 is a payload satellite owned by USAF SSD (US) in GEO that was launched on Wed, 18 Jan 1967 UTC via a TITAN IIIC launch vehicle from the Air Force Eastern Test Range (AFETR). Payloads include a variety of satellites, spacecraft, and rockets equipped with specific instruments for various scientific and technological missions. These include communications satellites like Starlink; space stations such as the ISS; scientific satellites like the Hubble; Earth observation satellites from companies like Planet Labs, Umbra, and HawkEye 360; GPS; miniature CubeSats for education and research; and military/defense satellites.

Loading next visibility...
OPS 9323 (IDSCS 10) details
Identifier
2650, 1967-003C
Orbit
GEO
Last TLE update2 days ago
Origin
Flag of USUSAF SSD (US)
ManufacturerPhilco-Ford WDL
MissionNon-operational Defense Communications
Bus & MotorIDCSP, Unknown motor
Mass45 kg wet, 45 kg dry
Launch date (UTC)
1967-01-18 (58 years ago)
Launch vehicle
TITAN IIIC
Launch site
Air Force Eastern Test Range (AFETR)
Object type
Payload
Rocket body
Debris
Shape & HBRIco Poly, 0.9 m
Radar Cross Section0.926 m², Medium (>0.1 m² and < 1m²)

Expand to show TLE details & history

TLE from 2 days ago
0 OPS 9323 (IDSCS 10)
1 02650U 67003C   25039.01753672 -.00000121  00000-0  00000-0 0  9994
2 02650   7.3639  49.1227 0033107  98.0712 237.6208  1.08222384135095
Epoch: 2025-02-08T00:25Z
Definitive object data (Epoch: 2025-02-08T00:25:15.172Z)
Latitude-3.07855°
Longitude-119.98855°
Altitude33,766.625 km
Speed3.148 km/s
True Right ascension01h 38m 47s
True Declination-3° 04' 31"
Sunlit
Object was in daylight at TLE epoch
Visualization TLE readout
Latitude-6.8337°
Longitude152.17384°
Altitude33,811.259 km
Speed3.145 km/s
Apparent Right ascension20h 03m 55s
Apparent Declination-13° 52' 15"
Sunlit
Object is in daylight
Visualization observer readout
Local Sidereal Time17:40:29
Azimuth140.455° SSE
Elevation26.722°
Doppler factor1
Orbital elements
Apogee altitude33,829.119 km
Perigee altitude33,563.769 km
Semi-major axis40,074.581 km
Eccentricity0.0033107
Inclination7.3639°
RAAN49.1227°
Arg. of periapsis98.0712°
True anomaly237.30112°
Mean anomaly237.6208°
Eccentric anomaly237.46089°
Mean motion0.27055 °/min
BSTARUnknown
Orbital period1330.65 mins
Loading historical data...
2650 neighbors
Authenticating...
Loading maneuver chart data...
Loading historical data...
Loading historical data...
Loading historical data...
Loading historical data...
Loading historical data...
Loading historical data...
Loading historical data...

OPS 9323 (IDSCS 10) Visibility forecast

Observer location: undefined°, undefined

Span
Click to sort rows by Start time (UTC) header in descending order
Start Az.
Max El. time (UTC)
Max El. Az.
Max El.
End time (UTC)
End Az.
1323 mins2025-02-09 15:21:05.459Z140.466° SSE2025-02-10 01:42:05.459Z119.07° SE26.873°2025-02-10 13:24:05.459Z116.873° SE
|